Time,TemperatureF,DewpointF,PressureIn,WindDirection,WindDirectionDegrees,WindSpeedMPH,WindSpeedGustMPH,Humidity,HourlyPrecipIn,Conditions,Clouds,dailyrainin,SoftwareType,DateUTC
2015-05-24 00:05:00,55.1,51.0,29.90,ESE,113,1.1,1.1,86,0.00,,,0.00,WUHU216HW,2015-05-24 07:05:00,
2015-05-24 00:35:00,55.1,51.0,29.89,East,90,0.4,0.4,86,0.00,,,0.00,WUHU216HW,2015-05-24 07:35:00,
2015-05-24 01:05:00,55.1,51.0,29.89,ESE,113,0.4,0.4,86,0.00,,,0.00,WUHU216HW,2015-05-24 08:05:00,
2015-05-24 01:35:00,55.3,51.1,29.88,East,90,0.4,0.4,86,0.00,,,0.00,WUHU216HW,2015-05-24 08:35:00,
2015-05-24 02:05:00,55.3,51.1,29.88,East,90,1.1,1.1,86,0.00,,,0.00,WUHU216HW,2015-05-24 09:05:00,
2015-05-24 02:35:00,55.3,51.1,29.88,East,90,0.4,0.4,86,0.00,,,0.00,WUHU216HW,2015-05-24 09:35:00,
2015-05-24 03:05:00,55.3,51.1,29.88,East,90,0.0,0.0,86,0.00,,,0.00,WUHU216HW,2015-05-24 10:05:00,
2015-05-24 03:35:00,55.1,51.0,29.87,ESE,113,1.1,1.1,86,0.00,,,0.00,WUHU216HW,2015-05-24 10:35:00,
2015-05-24 04:05:00,55.1,51.0,29.87,East,90,0.0,0.0,86,0.00,,,0.00,WUHU216HW,2015-05-24 11:05:00,
2015-05-24 04:35:00,54.9,50.8,29.87,ESE,113,1.1,1.1,86,0.00,,,0.00,WUHU216HW,2015-05-24 11:35:00,
2015-05-24 05:05:00,54.9,50.8,29.87,ESE,113,1.1,1.1,86,0.00,,,0.00,WUHU216HW,2015-05-24 12:05:00,
2015-05-24 05:35:00,54.5,50.8,29.87,ESE,113,1.1,1.1,87,0.00,,,0.00,WUHU216HW,2015-05-24 12:35:00,
2015-05-24 06:05:00,54.5,50.8,29.87,ESE,113,0.4,0.4,87,0.00,,,0.00,WUHU216HW,2015-05-24 13:05:00,
2015-05-24 06:35:00,54.5,50.8,29.87,SE,135,2.5,2.5,87,0.00,,,0.00,WUHU216HW,2015-05-24 13:35:00,
2015-05-24 07:05:00,55.1,51.2,29.87,SE,135,0.2,0.2,87,0.00,,,0.00,WUHU216HW,2015-05-24 14:05:00,
2015-05-24 07:35:00,55.6,51.5,29.87,NE,45,0.0,0.0,86,0.00,,,0.00,WUHU216HW,2015-05-24 14:35:00,
2015-05-24 08:05:00,56.2,51.7,29.87,ESE,113,1.3,1.3,85,0.00,,,0.00,WUHU216HW,2015-05-24 15:05:00,
2015-05-24 08:35:00,56.9,52.0,29.86,ESE,113,0.4,0.4,84,0.00,,,0.00,WUHU216HW,2015-05-24 15:35:00,
2015-05-24 09:05:00,57.1,52.6,29.86,East,90,0.7,0.7,85,0.00,,,0.00,WUHU216HW,2015-05-24 16:05:00,
2015-05-24 09:35:00,58.5,53.4,29.86,SE,135,3.1,3.1,83,0.00,,,0.00,WUHU216HW,2015-05-24 16:35:00,
2015-05-24 10:05:00,59.8,52.9,29.85,SSE,158,5.6,5.6,78,0.00,,,0.00,WUHU216HW,2015-05-24 17:05:00,
2015-05-24 10:35:00,60.7,54.2,29.85,SSE,158,5.1,5.1,79,0.00,,,0.00,WUHU216HW,2015-05-24 17:35:00,
2015-05-24 11:05:00,61.7,54.1,29.84,SSW,203,2.5,2.5,76,0.00,,,0.00,WUHU216HW,2015-05-24 18:05:00,
2015-05-24 11:35:00,62.8,54.7,29.84,SSW,203,2.2,2.2,75,0.00,,,0.00,WUHU216HW,2015-05-24 18:35:00,
2015-05-24 12:05:00,61.9,53.2,29.84,SE,135,4.7,4.7,73,0.00,,,0.00,WUHU216HW,2015-05-24 19:05:00,
2015-05-24 12:35:00,63.2,54.0,29.83,SE,135,4.9,4.9,72,0.00,,,0.00,WUHU216HW,2015-05-24 19:35:00,
2015-05-24 13:05:00,64.1,54.2,29.82,SSW,203,6.9,6.9,70,0.00,,,0.00,WUHU216HW,2015-05-24 20:05:00,
2015-05-24 13:35:00,66.1,53.9,29.81,SW,225,1.3,1.3,65,0.00,,,0.00,WUHU216HW,2015-05-24 20:35:00,
2015-05-24 14:05:00,66.4,54.7,29.81,SE,135,1.3,1.3,66,0.00,,,0.00,WUHU216HW,2015-05-24 21:05:00,
2015-05-24 14:35:00,66.1,54.4,29.80,SSE,158,6.9,6.9,66,0.00,,,0.00,WUHU216HW,2015-05-24 21:35:00,
2015-05-24 15:05:00,67.0,54.4,29.80,SSE,158,6.7,6.7,64,0.00,,,0.00,WUHU216HW,2015-05-24 22:05:00,
2015-05-24 15:35:00,67.3,54.7,29.78,SW,225,0.9,0.9,64,0.00,,,0.00,WUHU216HW,2015-05-24 22:35:00,
2015-05-24 16:05:00,67.1,54.6,29.77,SSW,203,5.1,5.1,64,0.00,,,0.00,WUHU216HW,2015-05-24 23:05:00,
2015-05-24 16:35:00,67.3,53.8,29.76,SSE,158,3.4,3.4,62,0.00,,,0.00,WUHU216HW,2015-05-24 23:35:00,